DMSP 5D-2 F13 DEB, 40473

Orbit data source: Space-Track

DMSP 5D-2 F13 DEB, 40473 is space debris in SSO originally from a launch on Fri, 24 Mar 1995 UTC launched from the Air Force Western Test Range (AFWTR). Debris objects in space refer to the collection of defunct objects orbiting the Earth. Examples of debris include non-operational satellites, rocket bodies, and fragments generated from explosions, collisions, or faulty payload assembly.

Loading next visibility...
Identifier
40473, 1995-015BR
Orbit
SSO
Country
Flag of USUS
Related business
Manufacturer
Unknown
Mission
Spacecraft
Bus & Motor
Unknown
Mass
Unknown
Launch date (UTC)
1995-03-24 (31 years ago)
Launch vehicle
Unknown
Launch site
Air Force Western Test Range (AFWTR)
Object type
Payload
Rocket body
Debris
Shape & HBR
Unknown shape, 0.1 m
Radar Cross Section
Medium (>0.1 m² and <1 m²)

Expand to show TLE details & history
Last TLE update: 1 week ago

TLE from 1 week ago
0 DMSP 5D-2 F13 DEB
1 40473U 95015BR  26163.78211635  .00002151  00000-0  13957-2 0  9995
2 40473  98.7153   6.7004 0124466  28.7488 332.0464 13.99925888571940
Epoch: 2026-06-12T18:46Z
TLE epoch observation values (Epoch: 2026-06-12T18:46:14.852Z)
Latitude
-0.00001°
Longitude
-175.96811°
Altitude
817.221 km
Speed
7.485 km/s
True Right ascension
00h 26m 48s
True Declination
0° 00' 00"
Sunlit
Object was in daylight at epoch
Visualization orbit readout
Latitude
Unknown
Longitude
Unknown
Altitude
Unknown
Speed
Unknown
Apparent Right ascension
Unknown
Apparent Declination
Unknown
Sunlit
N/A
Visualization observer readout
Local Sidereal Time
12:06:24
Azimuth
Unknown
Elevation
Unknown
Doppler factor
Unknown
Orbital elements
Apogee altitude
981.716 km
Perigee altitude
800.758 km
Semi-major axis
7,269.374 km
Eccentricity
0.01245
Inclination
98.7153°
RAAN
6.7004°
Arg. of periapsis
28.7488°
True anomaly
331.36853°
Mean anomaly
332.0464°
Eccentric anomaly
331.7084°
Mean motion
3.50185 °/min
Orbital period
102.8 mins
BSTAR
0.0013957
Loading maneuver chart data...
Computing Atmospheric mass density...

Documentation

Showing up to 5 results
|